Regional Weather Roundup
Issued by NWS

Home | Current Version | Previous Version | Text Only | Print | Product List | Glossary Off
Versions: 1 2 3 4 5 6 7 8 9 10 11 12 13 14 15 16 17 18 19 20 21 22 23 24 25 26 27 28 29 30 31 32 33 34 35 36 37 38 39 40 41 42 43 44 45 46 47 48 49 50

784
ASUS45 KTFX 060010
RWRMT
MONTANA REGIONAL WEATHER ROUNDUP
NATIONAL WEATHER SERVICE GREAT FALLS MT
600 PM MDT THU MAY 05 2016

NOTE: "FAIR" INDICATES FEW OR NO CLOUDS BELOW 12000 FEET WITH NO
SIGNIFICANT WEATHER AND/OR OBSTRUCTIONS TO VISIBILITY.

MTZ001>007-043-060100-
WEST OF THE DIVIDE

CITY           SKY/WX    TMP DP  RH WIND       PRES   REMARKS
KALISPELL      CLOUDY    73  48  41 N6        29.84S
MISSOULA       CLOUDY    75  46  35 N14       29.81F
BUTTE          CLOUDY    74  27  17 S10       29.90F
MULLAN PASS    PTSUNNY   56  42  59 N5        29.99S
ANACONDA         N/A     73  30  20 N6        29.87S
DEER LODGE       N/A     79  34  19 CALM      29.87F
EUREKA           N/A     72  45  37 NW10G17   29.89S
HAMILTON         N/A     72  45  37 NW7       29.80F
LIBBY            N/A     75  45  33 NW8       29.85S
PLAINS           N/A     66  50  56 N8        29.86R
$$

MTZ008-052>055-060100-
SOUTHWEST MONTANA

CITY           SKY/WX    TMP DP  RH WIND       PRES   REMARKS
BOZEMAN        CLOUDY    77  45  32 E5        29.85F
DILLON         CLOUDY    76  25  15 S15G23    29.87S
ENNIS          MOSUNNY   75  28  17 S15G21    29.95S
THREE FORKS      N/A     79 -31   1 N1        29.86S
TWIN BRIDGES     N/A     78  28  16 S9        29.88S
$$

MTZ009-010-012-014-046-048-049-054-060100-
EAST SLOPES AND CENTRAL MONTANA

CITY           SKY/WX    TMP DP  RH WIND       PRES   REMARKS
CUT BANK         N/A     65  37  35 N26G35    29.96R
GREAT FALLS    CLOUDY    77  40  26 N7        29.85S
MALMSTROM AFB  CLOUDY    78  42  28 NE10      29.85S
HELENA         MOSUNNY   82  33  17 E12G18    29.84S
CHOTEAU          N/A     68  43  40 N18G25    29.93R
CONRAD           N/A     70  50  49 NW17      29.96R
$$

MTZ011-013-016-021-045-047-050-051-060100-
NORTH CENTRAL MONTANA

CITY           SKY/WX    TMP DP  RH WIND       PRES   REMARKS
HAVRE          PTSUNNY   75  46  35 N15       29.83S
LEWISTOWN      MOSUNNY   76  44  32 N7        29.88F
N BAR RANCH      N/A     75  39  27 NE8G15    29.92S
$$

MTZ017>020-022>027-061-062-060100-
NORTHEAST MONTANA

CITY           SKY/WX    TMP DP  RH WIND       PRES   REMARKS
GLASGOW        CLOUDY    84  42  22 CALM      29.77S
JORDAN           N/A     84  43  23 W5        29.79F
SIDNEY         CLOUDY    84  45  24 W7        29.75S
WOLF POINT     SUNNY     87  40  19 W6        29.75F
POPLAR           N/A     88  37  16 W9        29.75F
SCOBEY           N/A     87  35  15 W12       29.77F
$$

MTZ028>42-056>058-060100-
SOUTHCENTRAL AND SOUTHEAST MONTANA

CITY           SKY/WX    TMP DP  RH WIND       PRES   REMARKS
BAKER          CLOUDY    84  38  19 SW3       29.83F
BILLINGS       PTSUNNY   82  34  17 N9        29.84F
LIVINGSTON     CLOUDY    77  38  24 E10       29.86F
MILES CITY     SUNNY     86  32  14 W7        29.79F
EKALAKA          N/A     83  33  16 SW6       29.86S
FORSYTH          N/A     88  34  14 CALM      29.79F
LAUREL           N/A     82  44  26 MISG      29.84F
ROUNDUP          N/A     82  34  17 SW5       29.77S
$$

REGIONAL REPORTS...DAKOTAS

CITY           SKY/WX    TMP DP  RH WIND       PRES   REMARKS
WILLISTON      CLOUDY    86  35  16 SW10      29.74F
MINOT          CLOUDY    92  36  14 SW10G17   29.73S
DICKINSON      PTSUNNY   83  35  18 W9        29.79F
BEACH            N/A     84  32  15 SW8       29.83F
CROSBY           N/A     86  37  17 SW17      29.73S
TIOGA            N/A     84  34  16 SW10G22   29.80F
WATFORD CITY     N/A     86  39  19 S8        29.76F
BISMARCK       CLOUDY    87  43  21 SW6       29.78S
GRAND FORKS    MOSUNNY   90  35  14 SW16      29.71F
FARGO          SUNNY     88  37  16 SW12      29.75F
BUFFALO SD       N/A     84  39  20 S8        29.79F
RAPID CITY     CLOUDY    79  51  37 E7        29.87F
$$

REGIONAL REPORTS...WYOMING/IDAHO/WASHINGTON

CITY           SKY/WX    TMP DP  RH WIND       PRES   REMARKS
GILLETTE       CLOUDY    77  45  32 N5        29.91F
SHERIDAN       CLOUDY    80  38  22 CALM      29.87F
BUFFALO WY     CLOUDY    77  34  21 NE8       29.96S
CODY           SUNNY     79  32  18 SE13      29.91F
YELLOWSTONE LA   N/A     55  25  31 CALM      30.12F
IDAHO FALLS    CLOUDY    80  28  15 S15       29.85F
SALMON         CLOUDY    77  36  22 W6        29.75S
BOISE          PTSUNNY   76  46  34 NW12      29.71S
SPOKANE        PTSUNNY   69  49  48 N9        29.89S
$$

REGIONAL REPORTS...ALBERTA

CITY           SKY/WX    TMP DP  RH WIND       PRES   REMARKS
EDMONTON       MOSUNNY   64  23  20 W6G20     29.99S
CALGARY        LGT RAIN  50  39  66 N12       30.09R
MEDICINE HAT   CLOUDY    66  41  39 N24G30    29.93R
$$

REGIONAL REPORTS...SASKATCHEWAN

CITY           SKY/WX    TMP DP  RH WIND       PRES   REMARKS
SWIFT CURRENT  SUNNY     77  36  22 NW23G31   29.81R
REGINA         PTSUNNY   84  36  17 NW20G30   29.71R
SASKATOON      PTSUNNY   70  41  35 N28       29.80R SMOKE
ROCKGLEN         N/A     79  37  22 N6          N/A
$$




USA.gov is the U.S. government's official web portal to all federal, state and local government web resources and services.